Time,TemperatureF,DewpointF,PressureIn,WindDirection,WindDirectionDegrees,WindSpeedMPH,WindSpeedGustMPH,Humidity,HourlyPrecipIn,Conditions,Clouds,dailyrainin,SoftwareType,DateUTC
2013-08-26 00:14:00,64.0,-99.9,-100.00,North,-999,-999.0,-999.0,-999,0.00,,,0.00,,2013-08-26 04:14:00,
2013-08-26 00:25:00,64.0,-99.9,-100.00,North,-999,-999.0,-999.0,-999,0.00,,,0.00,,2013-08-26 04:25:00,
2013-08-26 00:34:00,64.0,-99.9,-100.00,North,-999,-999.0,-999.0,-999,0.00,,,0.00,,2013-08-26 04:34:00,
2013-08-26 00:44:00,64.0,-99.9,-100.00,North,-999,-999.0,-999.0,-999,0.00,,,0.00,,2013-08-26 04:44:00,
2013-08-26 01:13:00,62.0,-99.9,-100.00,North,-999,-999.0,-999.0,-999,0.00,,,0.00,,2013-08-26 05:13:00,
2013-08-26 01:23:00,62.0,-99.9,-100.00,North,-999,-999.0,-999.0,-999,0.00,,,0.00,,2013-08-26 05:23:00,
2013-08-26 01:34:00,62.0,-99.9,-100.00,North,-999,-999.0,-999.0,-999,0.00,,,0.00,,2013-08-26 05:34:00,
2013-08-26 01:44:00,62.0,-99.9,-100.00,North,-999,-999.0,-999.0,-999,0.00,,,0.00,,2013-08-26 05:44:00,
2013-08-26 02:12:00,62.0,-99.9,-100.00,North,-999,-999.0,-999.0,-999,0.00,,,0.00,,2013-08-26 06:12:00,
2013-08-26 02:22:00,62.0,-99.9,-100.00,North,-999,-999.0,-999.0,-999,0.00,,,0.00,,2013-08-26 06:22:00,
2013-08-26 02:32:00,62.0,-99.9,-100.00,North,-999,-999.0,-999.0,-999,0.00,,,0.00,,2013-08-26 06:32:00,
2013-08-26 02:42:00,62.0,-99.9,-100.00,North,-999,-999.0,-999.0,-999,0.00,,,0.00,,2013-08-26 06:42:00,
2013-08-26 03:12:00,63.0,-99.9,-100.00,North,-999,-999.0,-999.0,-999,0.06,,,-99.99,,2013-08-26 07:12:00,
2013-08-26 03:22:00,63.0,-99.9,-100.00,North,-999,-999.0,-999.0,-999,0.06,,,-99.99,,2013-08-26 07:22:00,
2013-08-26 03:32:00,63.0,-99.9,-100.00,North,-999,-999.0,-999.0,-999,0.06,,,-99.99,,2013-08-26 07:32:00,
2013-08-26 03:42:00,63.0,-99.9,-100.00,North,-999,-999.0,-999.0,-999,0.06,,,-99.99,,2013-08-26 07:42:00,
2013-08-26 04:12:00,62.0,-99.9,-100.00,North,-999,-999.0,-999.0,-999,0.04,,,0.10,,2013-08-26 08:12:00,
2013-08-26 04:22:00,62.0,-99.9,-100.00,North,-999,-999.0,-999.0,-999,0.04,,,0.10,,2013-08-26 08:22:00,
2013-08-26 04:32:00,62.0,-99.9,-100.00,North,-999,-999.0,-999.0,-999,0.04,,,0.10,,2013-08-26 08:32:00,
2013-08-26 04:42:00,62.0,-99.9,-100.00,North,-999,-999.0,-999.0,-999,0.04,,,0.10,,2013-08-26 08:42:00,
2013-08-26 05:12:00,61.0,-99.9,-100.00,North,-999,-999.0,-999.0,-999,0.04,,,-99.99,,2013-08-26 09:12:00,
2013-08-26 05:22:00,61.0,-99.9,-100.00,North,-999,-999.0,-999.0,-999,0.04,,,-99.99,,2013-08-26 09:22:00,
2013-08-26 05:33:00,61.0,-99.9,-100.00,North,-999,-999.0,-999.0,-999,0.04,,,-99.99,,2013-08-26 09:33:00,
2013-08-26 05:44:00,61.0,-99.9,-100.00,North,-999,-999.0,-999.0,-999,0.04,,,-99.99,,2013-08-26 09:44:00,
2013-08-26 06:13:00,63.0,-99.9,-100.00,North,-999,-999.0,-999.0,-999,0.08,,,0.22,,2013-08-26 10:13:00,
2013-08-26 06:23:00,63.0,-99.9,-100.00,North,-999,-999.0,-999.0,-999,0.08,,,0.22,,2013-08-26 10:23:00,
2013-08-26 06:32:00,63.0,-99.9,-100.00,North,-999,-999.0,-999.0,-999,0.08,,,0.22,,2013-08-26 10:32:00,
2013-08-26 06:42:00,63.0,-99.9,-100.00,North,-999,-999.0,-999.0,-999,0.08,,,0.22,,2013-08-26 10:42:00,
2013-08-26 07:12:00,63.0,-99.9,-100.00,North,-999,-999.0,-999.0,-999,0.01,,,0.23,,2013-08-26 11:12:00,
2013-08-26 07:22:00,63.0,-99.9,-100.00,North,-999,-999.0,-999.0,-999,0.01,,,0.23,,2013-08-26 11:22:00,
2013-08-26 07:33:00,63.0,-99.9,-100.00,North,-999,-999.0,-999.0,-999,0.01,,,0.23,,2013-08-26 11:33:00,
2013-08-26 07:42:00,63.0,-99.9,-100.00,North,-999,-999.0,-999.0,-999,0.01,,,0.23,,2013-08-26 11:42:00,
2013-08-26 08:12:00,63.0,-99.9,-100.00,North,-999,-999.0,-999.0,-999,0.00,,,0.23,,2013-08-26 12:12:00,
2013-08-26 08:22:00,63.0,-99.9,-100.00,North,-999,-999.0,-999.0,-999,0.00,,,0.23,,2013-08-26 12:22:00,
2013-08-26 08:32:00,63.0,-99.9,-100.00,North,-999,-999.0,-999.0,-999,0.00,,,0.23,,2013-08-26 12:32:00,
2013-08-26 08:42:00,63.0,-99.9,-100.00,North,-999,-999.0,-999.0,-999,0.00,,,0.23,,2013-08-26 12:42:00,
2013-08-26 09:12:00,64.0,-99.9,-100.00,North,-999,-999.0,-999.0,-999,0.00,,,0.23,,2013-08-26 13:12:00,
2013-08-26 09:22:00,64.0,-99.9,-100.00,North,-999,-999.0,-999.0,-999,0.00,,,0.23,,2013-08-26 13:22:00,
2013-08-26 09:32:00,64.0,-99.9,-100.00,North,-999,-999.0,-999.0,-999,0.00,,,0.23,,2013-08-26 13:32:00,
2013-08-26 09:42:00,64.0,-99.9,-100.00,North,-999,-999.0,-999.0,-999,0.00,,,0.23,,2013-08-26 13:42:00,
2013-08-26 10:11:00,66.0,-99.9,-100.00,North,-999,-999.0,-999.0,-999,0.00,,,0.23,,2013-08-26 14:11:00,
2013-08-26 10:22:00,66.0,-99.9,-100.00,North,-999,-999.0,-999.0,-999,0.00,,,0.23,,2013-08-26 14:22:00,
2013-08-26 10:32:00,66.0,-99.9,-100.00,North,-999,-999.0,-999.0,-999,0.00,,,0.23,,2013-08-26 14:32:00,
2013-08-26 10:42:00,66.0,-99.9,-100.00,North,-999,-999.0,-999.0,-999,0.00,,,0.23,,2013-08-26 14:42:00,
2013-08-26 10:45:00,70.0,-99.9,-100.00,North,-999,-999.0,-999.0,-999,0.00,,,0.23,,2013-08-26 14:45:00,
2013-08-26 11:12:00,70.0,-99.9,-100.00,North,-999,-999.0,-999.0,-999,0.00,,,0.23,,2013-08-26 15:12:00,
2013-08-26 11:22:00,70.0,-99.9,-100.00,North,-999,-999.0,-999.0,-999,0.00,,,0.23,,2013-08-26 15:22:00,
2013-08-26 11:35:00,70.0,-99.9,-100.00,North,-999,-999.0,-999.0,-999,0.00,,,0.23,,2013-08-26 15:35:00,
2013-08-26 11:45:00,74.0,-99.9,-100.00,North,-999,-999.0,-999.0,-999,0.00,,,0.23,,2013-08-26 15:45:00,
2013-08-26 12:17:00,74.0,-99.9,-100.00,North,-999,-999.0,-999.0,-999,0.00,,,0.23,,2013-08-26 16:17:00,
2013-08-26 12:29:00,74.0,-99.9,-100.00,North,-999,-999.0,-999.0,-999,0.00,,,0.23,,2013-08-26 16:29:00,
2013-08-26 12:37:00,74.0,-99.9,-100.00,North,-999,-999.0,-999.0,-999,0.00,,,0.23,,2013-08-26 16:37:00,
2013-08-26 13:12:00,76.0,-99.9,-100.00,North,-999,-999.0,-999.0,-999,0.00,,,0.23,,2013-08-26 17:12:00,
2013-08-26 13:24:00,76.0,-99.9,-100.00,North,-999,-999.0,-999.0,-999,0.00,,,0.23,,2013-08-26 17:24:00,
2013-08-26 13:37:00,76.0,-99.9,-100.00,North,-999,-999.0,-999.0,-999,0.00,,,0.23,,2013-08-26 17:37:00,
2013-08-26 13:43:00,76.0,-99.9,-100.00,North,-999,-999.0,-999.0,-999,0.00,,,0.23,,2013-08-26 17:43:00,
2013-08-26 14:12:00,78.0,-99.9,-100.00,North,-999,-999.0,-999.0,-999,0.00,,,0.23,,2013-08-26 18:12:00,
2013-08-26 14:22:00,78.0,-99.9,-100.00,North,-999,-999.0,-999.0,-999,0.00,,,0.23,,2013-08-26 18:22:00,
2013-08-26 14:32:00,78.0,-99.9,-100.00,North,-999,-999.0,-999.0,-999,0.00,,,0.23,,2013-08-26 18:32:00,
2013-08-26 14:42:00,78.0,-99.9,-100.00,North,-999,-999.0,-999.0,-999,0.00,,,0.23,,2013-08-26 18:42:00,
2013-08-26 15:11:00,76.0,-99.9,-100.00,North,-999,-999.0,-999.0,-999,0.00,,,0.23,,2013-08-26 19:11:00,
2013-08-26 15:22:00,76.0,-99.9,-100.00,North,-999,-999.0,-999.0,-999,0.00,,,0.23,,2013-08-26 19:22:00,
2013-08-26 15:32:00,76.0,-99.9,-100.00,North,-999,-999.0,-999.0,-999,0.00,,,0.23,,2013-08-26 19:32:00,
2013-08-26 15:42:00,76.0,-99.9,-100.00,North,-999,-999.0,-999.0,-999,0.00,,,0.23,,2013-08-26 19:42:00,
2013-08-26 16:12:00,78.0,-99.9,-100.00,North,-999,-999.0,-999.0,-999,0.00,,,0.23,,2013-08-26 20:12:00,
2013-08-26 16:22:00,78.0,-99.9,-100.00,North,-999,-999.0,-999.0,-999,0.00,,,0.23,,2013-08-26 20:22:00,
2013-08-26 16:32:00,78.0,-99.9,-100.00,North,-999,-999.0,-999.0,-999,0.00,,,0.23,,2013-08-26 20:32:00,
2013-08-26 16:43:00,78.0,-99.9,-100.00,North,-999,-999.0,-999.0,-999,0.00,,,0.23,,2013-08-26 20:43:00,
2013-08-26 16:45:00,79.0,-99.9,-100.00,North,-999,-999.0,-999.0,-999,0.00,,,0.23,,2013-08-26 20:45:00,
2013-08-26 17:12:00,79.0,-99.9,-100.00,North,-999,-999.0,-999.0,-999,0.00,,,0.23,,2013-08-26 21:12:00,
2013-08-26 17:22:00,79.0,-99.9,-100.00,North,-999,-999.0,-999.0,-999,0.00,,,0.23,,2013-08-26 21:22:00,
2013-08-26 17:35:00,79.0,-99.9,-100.00,North,-999,-999.0,-999.0,-999,0.00,,,0.23,,2013-08-26 21:35:00,
2013-08-26 18:16:00,77.0,-99.9,-100.00,North,-999,-999.0,-999.0,-999,0.00,,,0.23,,2013-08-26 22:16:00,
2013-08-26 18:26:00,77.0,-99.9,-100.00,North,-999,-999.0,-999.0,-999,0.00,,,0.23,,2013-08-26 22:26:00,
2013-08-26 18:35:00,77.0,-99.9,-100.00,North,-999,-999.0,-999.0,-999,0.00,,,0.23,,2013-08-26 22:35:00,
2013-08-26 18:43:00,77.0,-99.9,-100.00,North,-999,-999.0,-999.0,-999,0.00,,,0.23,,2013-08-26 22:43:00,
2013-08-26 20:11:00,73.0,-99.9,-100.00,North,-999,-999.0,-999.0,-999,-99.99,,,0.23,,2013-08-27 00:11:00,
2013-08-26 20:22:00,73.0,-99.9,-100.00,North,-999,-999.0,-999.0,-999,-99.99,,,0.23,,2013-08-27 00:22:00,
2013-08-26 20:32:00,73.0,-99.9,-100.00,North,-999,-999.0,-999.0,-999,-99.99,,,0.23,,2013-08-27 00:32:00,
2013-08-26 20:42:00,73.0,-99.9,-100.00,North,-999,-999.0,-999.0,-999,-99.99,,,0.23,,2013-08-27 00:42:00,
2013-08-26 21:12:00,72.0,-99.9,-100.00,North,-999,-999.0,-999.0,-999,0.00,,,0.23,,2013-08-27 01:12:00,
2013-08-26 21:22:00,72.0,-99.9,-100.00,North,-999,-999.0,-999.0,-999,0.00,,,0.23,,2013-08-27 01:22:00,
2013-08-26 21:32:00,72.0,-99.9,-100.00,North,-999,-999.0,-999.0,-999,0.00,,,0.23,,2013-08-27 01:32:00,
2013-08-26 21:42:00,72.0,-99.9,-100.00,North,-999,-999.0,-999.0,-999,0.00,,,0.23,,2013-08-27 01:42:00,
2013-08-26 22:12:00,71.0,-99.9,-100.00,North,-999,-999.0,-999.0,-999,0.00,,,0.23,,2013-08-27 02:12:00,
2013-08-26 22:22:00,71.0,-99.9,-100.00,North,-999,-999.0,-999.0,-999,0.00,,,0.23,,2013-08-27 02:22:00,
2013-08-26 22:32:00,71.0,-99.9,-100.00,North,-999,-999.0,-999.0,-999,0.00,,,0.23,,2013-08-27 02:32:00,
2013-08-26 22:43:00,71.0,-99.9,-100.00,North,-999,-999.0,-999.0,-999,0.00,,,0.23,,2013-08-27 02:43:00,
2013-08-26 23:45:00,69.0,-99.9,-100.00,North,-999,-999.0,-999.0,-999,-99.99,,,0.23,,2013-08-27 03:45:00,